Lid_Strength_Index
12 12 12 11 11 12 12 12 12 12 11 11 10 9 9 9 9 8 8 8 8 7 7 6 5 4 5 4 4 4 4 4
13 12 12 11 11 11 12 12 12 12 11 11 11 9 9 9 9 8 7 7 8 7 7 7 6 5 4 4 4 5 4 4
13 12 12 12 12 11 12 12 12 12 11 11 11 10 9 9 9 8 8 7 8 7 7 7 5 4 4 5 5 5 5 5
14 14 13 13 12 12 12 12 12 12 11 11 11 11 10 9 9 7 8 8 8 7 7 6 5 4 4 5 5 5 5 5
13 13 13 13 12 12 12 12 12 12 11 11 11 11 11 9 8 7 7 8 7 7 7 6 5 4 4 5 5 5 5 5
14 14 13 13 13 12 12 12 12 12 12 12 11 11 10 10 8 8 7 6 6 8 7 6 6 5 4 5 5 5 5 5
14 14 14 15 13 12 13 12 12 12 12 11 11 10 11 10 9 8 7 7 7 7 7 7 6 8 7 6 5 5 6 6
13 13 14 13 13 13 12 12 12 12 12 11 11 11 11 10 10 7 7 7 7 7 7 7 7 9 9 9 5 6 7 7
12 12 13 13 14 13 12 12 12 12 12 12 12 12 11 11 10 8 8 8 8 8 8 8 8 10 9 9 7 7 8 8
11 12 13 14 13 13 13 13 13 13 12 12 11 12 12 11 10 9 9 9 8 9 9 9 9 10 9 8 8 9 9 9
11 12 12 13 12 13 14 14 14 13 13 12 12 12 12 12 11 12 11 11 12 12 11 12 10 11 10 8 9 11 13 12
11 11 12 13 13 13 13 14 14 14 14 13 12 12 11 11 12 12 13 13 12 12 12 12 12 10 10 10 10 12 13 13
12 12 12 13 13 13 14 14 13 13 14 14 14 13 12 12 12 13 13 14 14 13 13 14 13 12 10 10 10 11 12 13
13 14 14 15 14 14 14 15 15 14 15 14 14 14 14 13 13 14 13 14 14 14 13 13 14 14 11 10 11 11 14 14
16 16 15 15 14 15 16 14 13 13 14 14 13 14 14 14 13 13 13 13 14 14 14 14 14 13 14 13 13 13 14 13
16 17 17 16 15 16 14 13 13 13 13 13 13 13 13 14 13 13 13 12 13 13 13 13 13 13 12 12 13 13 13 14
16 16 16 17 17 17 14 12 12 13 13 13 13 13 12 13 13 12 12 12 11 11 12 14 11 11 11 11 11 12 13 14
18 19 19 18 18 19 14 12 12 12 12 12 12 12 12 12 12 13 13 12 11 11 11 12 12 11 11 11 11 11 12 13
21 21 21 20 19 17 20 13 12 12 12 12 11 11 11 11 12 12 13 14 14 13 12 12 12 12 11 11 12 13 12 13
25 24 24 21 19 19 19 16 16 12 12 11 11 11 11 11 11 12 12 13 14 15 13 14 12 12 12 11 13 13 13 13